Welcome to the New NWS' Forecast!
Most changes are behind the scenes, but click here for differences you might notice.

Regional Weather Roundup (RWR)

Issued by National Weather Service (NWS)

                            
000
ASUS46 KSEW 182210
RWRWA 

WASHINGTON REGIONAL WEATHER ROUNDUP
NATIONAL WEATHER SERVICE SEATTLE WA
300 PM PDT TUE SEP 18 2018

NOTE:"FAIR" INDICATES FEW OR NO CLOUDS BELOW 12,000 FEET WITH NO 
SIGNIFICANT WEATHER AND/OR OBSTRUCTIONS TO VISIBILITY.

WAZ507-509-555>559-182300-
SEATTLE, TACOMA, EVERETT, AND VICINITY
  
CITY           SKY/WX    TMP DP  RH WIND       PRES   REMARKS
EVERETT        SUNNY     62  46  55 VRB6      30.10F                  
BOEING FIELD   MOSUNNY   65  44  46 NW9       30.10F                  
RENTON         SUNNY     66  48  52 NW7       30.08F                  
SEATAC AIRPORT MOSUNNY   66  45  46 N9        30.09F                  
JBLM-MCCHORD   NOT AVBL                                               
PUYALLUP       FAIR      66  48  52 VRB6      30.09F                  
BREMERTON      SUNNY     65  46  50 E6        30.09F                  
JBLM-FT LEWIS  NOT AVBL                                               
TACOMA NARROWS SUNNY     64  43  46 N8        30.10F                  
$$
 
WAZ001-503-506-510-514-515-182300-
NORTH INTERIOR
  
CITY           SKY/WX    TMP DP  RH WIND       PRES   REMARKS
BELLINGHAM     SUNNY     62  49  62 W8        30.10F                  
FRIDAY HARBOR  SUNNY     64  48  56 E7        30.11F                  
EASTSOUND      SUNNY     57  52  82 NW7         N/A                   
PORT ANGELES   SUNNY     62  43  49 VRB3      30.12F                  
EDIZ HOOK      FAIR      58  49  72 SE5       30.11F                  
PORT TOWNSEND  FAIR      63  45  51 W9        30.10F                  
NAS WHIDBEY    MOSUNNY   61  49  64 W8        30.15F                  
ARLINGTON      SUNNY     64  50  60 W8        30.09F                  
BURLINGTON     SUNNY     63  50  63 NW10      30.10F                  
$$
 
WAZ020-022-039-040-504-511-512-182300-
SOUTHWEST INTERIOR
  
CITY           SKY/WX    TMP DP  RH WIND       PRES   REMARKS
SHELTON        SUNNY     69  44  40 CALM      30.06F                  
OLYMPIA        SUNNY     65  45  48 CALM      30.09F                  
CHEHALIS       FAIR      68  48  49 N8        30.08F                  
KELSO          SUNNY     68  48  48 N8        30.07F                  
VANCOUVER      SUNNY     69  44  40 N8        30.04F                  
SCAPPOOSE, OR  SUNNY     70  44  39 N13G18    30.04F                  
PORTLAND, OR   MOSUNNY   70  44  39 N7        30.05F                  
$$
 
WAZ021-516-517-182300-
WASHINGTON COAST
  
CITY           SKY/WX    TMP DP  RH WIND       PRES   REMARKS
FORKS          PTSUNNY   59  47  64 W9        30.12S                  
HOQUIAM        SUNNY     63  48  58 W13       30.11S                  
ASTORIA, OR    SUNNY     64  48  56 NW13      30.09F                  
$$
 
WAZ019-023-024-040-567>569-182300-
CASCADE MOUNTAINS AND COLUMBIA GORGE
  
CITY           SKY/WX    TMP DP  RH WIND       PRES   REMARKS
STAMPEDE PASS  SUNNY     57  45  64 VRB7      30.08S                  
TROUTDALE, OR  SUNNY     69  49  48 VRB6      30.04F                  
HOOD RIVER, OR CLEAR     72  45  37 W8        30.00F                  
THE DALLES, OR SUNNY     76  41  28 VRB5      29.97F                  
$$

WAZ026-027-041>044-520-521-182300-
EAST SLOPES
  
CITY           SKY/WX    TMP DP  RH WIND       PRES   REMARKS
OMAK           SUNNY     72  36  26 CALM      30.00F                  
WENATCHEE      SUNNY     70  31  23 SE8       29.99F                  
ELLENSBURG     SUNNY     73  30  20 CALM      30.00F                  
YAKIMA         SUNNY     72  33  24 CALM      30.00F                  
SUNNYSIDE ARPT CLEAR     70  43  37 E5        30.00F                  
YAKIMA TC      NOT AVBL                                               
$$

WAZ028-034-035-182300-
COLUMBIA BASIN
  
CITY           SKY/WX    TMP DP  RH WIND       PRES   REMARKS
EPHRATA        SUNNY     71  32  23 E8        30.00F                  
MOSES LAKE     SUNNY     72  32  23 SW9       30.01F                  
PASCO          SUNNY     72  37  28 CALM      30.00F                  
RICHLAND ARPT  CLEAR     74  35  24 NE3       30.00F                  
HERMISTON, OR  SUNNY     74  34  23 VRB5      29.99F                  
$$

WAZ036>038-182300-
NORTHEAST WASHINGTON
  
CITY           SKY/WX    TMP DP  RH WIND       PRES   REMARKS
SPOKANE GEIGER MOSUNNY   67  30  25 VRB6      30.02S                  
SPOKANE FELTS  SUNNY     71  29  21 VRB7      30.01S                  
FAIRCHILD AFB  NOT AVBL                                               
COEURDALENE,ID SUNNY     68  37  32 NW8       30.00F                  
DEER PARK      SUNNY     68  32  26 CALM      30.01F                  
$$

WAZ029>033-182300-
SOUTHEAST WASHINGTON
  
CITY           SKY/WX    TMP DP  RH WIND       PRES   REMARKS
PULLMAN        SUNNY     66  32  28 VRB6      30.03F                  
LEWISTON, ID   SUNNY     72  32  23 W6        29.99F                  
WALLA WALLA    SUNNY     72  33  24 W8        30.00F                  
PENDLETON, OR  SUNNY     70  33  25 VRB3      30.00F                  
$$